Location: Altmannsrot
(48.9797°N, 10.0702°E)
Time: 22:53:02
(UTC+00:00)

Daily predictions for brighter satellites

Satellite Brightness Start Highest point End
(mag) Time Altitude Azimuth Time Altitude Azimuth Time Altitude Azimuth
Cosmos 405 Rocket 3.2 15:53:52 10° NNW 15:57:02 51° W 16:00:08 10° S
Cosmos 1461 2.8 15:53:49 10° SSW 15:57:41 69° SE 16:01:36 10° NE
NOSS 2-2 (C) 4.3 15:55:05 10° W 15:57:44 25° NW 16:00:20 10° NNE
Cosmos 1844 Rocket 4.4 15:57:47 10° N 16:00:29 13° NNE 16:03:10 10° ENE
Cosmos 2219 4.1 15:56:23 10° NNW 16:01:15 27° NE 16:06:06 10° ESE
Cosmos 1980 Rocket 3.5 15:58:49 10° SSE 16:02:54 21° E 16:06:58 10° NE
CORIOLIS 4.4 15:58:00 10° SE 16:03:06 48° ENE 16:08:15 10° N
ATLAS CENTAUR R/B 3.8 16:00:52 10° WNW 16:03:24 21° WSW 16:05:51 10° S
Cosmos 1634 Rocket 4.4 15:58:59 10° SSW 16:05:09 70° WNW 16:11:19 10° N
NOSS 3-2 (A) 3.7 16:01:05 10° WSW 16:06:09 57° NW 16:12:20 10° NE
USA 307 -1.2 16:07:29 10° WSW 16:08:40 63° SSE 16:08:49 43° E
NOSS 3-2 (C) 3.2 16:04:22 10° SSW 16:09:22 75° SE 16:15:26 10° NE
Cosmos 2263 Rocket 2.6 16:04:39 10° NNW 16:09:59 40° NE 16:15:18 10° ESE
Cosmos 1867 3.6 16:06:19 10° NW 16:11:48 89° SW 16:17:15 10° SE
ARIANE 5 R/B 2.9 16:08:25 10° SE 16:13:11 42° ENE 16:18:02 10° N
IRIDIUM 106 4.4 16:08:21 10° N 16:13:31 58° E 16:18:38 10° SSE
Cosmos 2279 Rocket 4.1 16:07:36 10° S 16:13:50 84° W 16:20:08 10° N
IRS-1C 4.4 16:08:58 10° SE 16:13:58 44° ENE 16:19:00 10° N
Cosmos 1825 Rocket 3.8 16:13:41 10° N 16:17:52 44° ENE 16:21:58 10° SSE
Cosmos 1758 Rocket 4.4 16:17:57 10° NNW 16:22:09 54° W 16:26:19 10° S
Meteor 1-25 Rocket 4.3 16:16:41 10° N 16:22:30 67° ENE 16:28:13 10° SSE
Cosmos 2098 Rocket 3.4 16:19:06 10° SSW 16:23:28 78° W 16:28:38 10° N
Lacrosse 4 Rocket 3.7 16:22:28 10° WNW 16:24:23 13° NNW 16:26:18 10° N
Cosmos 1076 Rocket 4.1 16:21:01 10° N 16:24:59 34° ENE 16:28:56 10° SE
Cosmos 1655 Rocket 4.3 16:19:32 10° N 16:25:31 45° ENE 16:31:26 10° SE
SAR-Lupe-4 4.0 16:22:28 10° SE 16:25:48 39° ENE 16:29:09 10° N
USA 290 4.4 16:22:59 10° NW 16:25:55 31° WSW 16:28:50 10° S
Cosmos 1782 3.5 16:23:01 10° SSW 16:26:30 48° WNW 16:30:01 10° N
Cosmos 1933 3.4 16:23:02 10° S 16:26:45 51° E 16:30:29 10° NNE
Meteor 1-28 Rocket 2.9 16:26:37 10° NNE 16:29:59 86° WNW 16:33:19 10° SSW
Cosmos 2227 Rocket 2.2 16:24:33 10° NNW 16:30:14 83° ENE 16:35:54 10° SSE
CBERS-1 4.4 16:27:05 10° S 16:32:10 68° WSW 16:37:16 10° NNW
Cosmos 2369 Rocket 4.4 16:30:57 10° NW 16:33:31 13° NNW 16:36:05 10° N
SPOT 1/Viking Rocket 4.1 16:32:22 10° SE 16:37:03 35° ENE 16:41:45 10° N
SAR-Lupe-1 4.2 16:34:57 10° SE 16:38:25 48° ENE 16:41:56 10° N
SJ-12 3.8 16:34:57 10° SSE 16:38:37 54° ENE 16:42:21 10° N
Cosmos 1697 Rocket 2.6 16:36:16 10° SSW 16:41:52 82° ESE 16:47:31 10° NNE
CENTAUR R/B 3.9 16:36:35 10° W 16:42:12 32° NNW 16:48:30 12° NE
CZ-2D R/B 2.6 16:40:54 10° SSE 16:44:00 61° ENE 16:47:07 10° N
NOSS 2-3 (C) 3.4 16:42:35 10° SSW 16:45:54 45° SE 16:47:48 23° ENE
Cosmos 1538 Rocket 4.0 16:40:59 10° NNW 16:46:14 60° ENE 16:51:30 10° SE
Cosmos 2058 Rocket 3.9 16:42:34 10° SSE 16:46:27 30° E 16:49:15 16° NE
NOSS 3 (A) 4.0 16:45:03 10° NW 16:47:24 71° NE 16:50:28 10° SE
Cosmos 2266 Rocket 4.2 16:43:09 10° NNW 16:49:16 73° W 16:55:16 10° S
Cosmos 1606 Rocket 3.5 16:48:17 10° S 16:52:42 89° E 16:57:11 10° N
Lacrosse 5 rocket 2.5 16:54:47 10° NW 16:57:48 23° N 16:58:51 20° NNE
EXPRESS MD2 3.9 16:55:58 10° SSW 16:58:12 26° SE 16:59:01 23° ESE
UNK 3.8 16:54:16 10° NNE 16:58:51 78° WNW 17:03:23 10° SSW
CZ-4C R/B 4.0 16:53:27 10° NW 17:00:18 50° WSW 17:08:36 10° SSE
Thor Agena Rocket 4.4 16:55:26 10° S 17:00:30 54° WSW 17:05:33 10° NNW
IRS-P3 4.0 16:57:47 10° SSE 17:03:05 78° ENE 17:08:25 10° NNW
NOSS 2-3 (D) 3.0 17:01:34 10° SW 17:05:14 85° SE 17:07:03 29° NE
NOSS 2-3 (E) 3.1 17:02:15 10° SW 17:05:53 88° NW 17:07:43 29° NE
Cosmos 1354 Rocket 4.4 17:01:12 10° SW 17:06:25 64° WNW 17:11:39 10° NNE
Resurs 1-3 4.0 17:03:15 10° SE 17:07:13 38° ENE 17:11:13 10° N
CZ-4 R/B 4.3 17:03:58 10° SSE 17:07:49 57° ENE 17:11:43 10° N
Cosmos-2242 3.2 17:05:30 10° SSE 17:09:32 44° E 17:11:23 27° NE
MOS 1 Rocket 3.5 17:05:05 10° SSE 17:10:04 86° WSW 17:15:22 10° NNW
USA 238 DEB 3.5 17:04:32 10° SSW 17:10:33 67° SE 17:14:48 23° NE
USA 238 3.5 17:04:39 10° SSW 17:10:41 66° SE 17:14:54 23° NE
Meteor 2-20 4.4 17:05:04 10° S 17:11:12 73° E 17:17:20 10° NNE
Spot 4 Rocket 4.1 17:08:56 10° SE 17:13:51 51° ENE 17:18:49 10° N
Cosmos 1898 Rocket 3.6 17:09:07 10° S 17:14:04 49° ESE 17:16:31 27° NE
Cosmos 1726 Rocket 3.8 17:10:38 10° SSW 17:15:16 75° WNW 17:19:51 10° N
Gbstr 26 Del rocket 2.6 17:11:16 10° WSW 17:15:20 82° NNW 17:16:29 43° ENE
Cosmos 1553 Rocket 4.2 17:09:57 10° SSE 17:15:44 44° E 17:21:39 10° NNE
USA 215 3.8 17:12:07 24° ENE 17:15:46 44° N 17:21:55 10° WNW
Cosmos 372 Rocket 3.9 17:11:37 10° S 17:16:42 63° ESE 17:19:40 25° NE
AQUARIUS 4.4 17:13:19 10° S 17:17:42 69° WSW 17:22:07 10° NNW
Cosmos 2082 3.6 17:13:05 10° NNW 17:18:48 66° ENE 17:24:29 10° SE
SMAP 4.5 17:14:44 10° SSW 17:19:08 41° W 17:23:33 10° NNW
IRAS Rocket 4.3 17:14:53 10° SE 17:20:08 50° ENE 17:25:25 10° N
Cosmos 1805 2.7 17:17:36 10° N 17:20:57 62° ENE 17:24:16 10° SSE
GEOS 3 Rocket 3.7 17:19:09 23° NE 17:22:35 81° NW 17:27:58 10° SW
YAOGAN 1 2.5 17:21:41 10° SSE 17:25:52 59° ENE 17:30:04 10° N
Cosmos 923 Rocket 3.9 17:22:36 10° NNW 17:27:46 60° ENE 17:32:38 11° SE
Cosmos 1937 Rocket 3.6 17:24:38 10° S 17:29:37 50° ESE 17:30:51 41° ENE
Cosmos 1745 Rocket 4.3 17:25:25 10° N 17:31:11 39° ENE 17:36:53 10° SE
SL-16 R/B 3.7 17:26:57 10° SSE 17:29:26 20° SE 17:29:26 20° SE
Meteor 2-20 Rocket 4.3 17:26:21 10° S 17:32:31 75° E 17:38:28 10° NNE
CZ-2D R/B 3.3 17:29:47 10° SSE 17:33:58 83° ENE 17:38:06 10° NNW
SL-16 R/B 4.1 17:29:05 10° N 17:34:29 32° WNW 17:39:51 10° WSW
SL-24 R/B - RUBIN 2 4.5 17:29:48 10° S 17:34:44 37° ESE 17:34:52 37° ESE
SKYMED 2 3.4 17:35:14 33° NNE 17:37:10 82° ESE 17:41:31 10° SSW
Cosmos 1244 Rocket 4.4 17:30:58 10° N 17:37:16 83° E 17:43:28 10° S
COSMOS 2455 3.3 17:32:54 10° S 17:38:20 37° ESE 17:38:36 37° ESE
Meteor 2-2 Rocket 4.1 17:32:48 10° S 17:38:25 75° E 17:42:46 17° NNE
Okean 1 3.1 17:35:15 10° S 17:38:21 62° SSE 17:38:21 62° SSE
Cosmos 494 Rocket 4.4 17:38:29 10° NNW 17:42:50 42° NE 17:42:50 42° NE
Cosmos 1844 Rocket 2.9 17:40:27 10° NNW 17:45:49 45° NE 17:45:49 45° NE
Cosmos 2219 3.5 17:40:11 10° NNW 17:45:54 69° WSW 17:51:36 10° SSE
Cosmos 1980 Rocket 2.3 17:40:39 10° SW 17:46:17 72° WNW 17:49:21 28° NNE
Aureole 1 Rocket 3.8 17:43:28 10° SSW 17:48:08 67° WNW 17:51:47 23° NNE
SL-08 R/B 4.4 17:42:06 10° N 17:48:29 84° E 17:54:50 10° S
Meteor 1-26 Rocket 4.0 17:43:39 10° S 17:49:03 88° W 17:52:48 21° N
PSLV R/B 3.2 17:46:03 10° SSE 17:50:05 88° ENE 17:54:10 10° NNW
Cosmos 1386 Rocket 4.3 17:46:14 10° N 17:52:20 68° ENE 17:58:30 10° SSE
ARIANE 5 R/B 4.4 17:47:54 10° SSW 17:52:20 30° W 17:56:52 10° NNW
SL-19 R/B 4.1 17:47:29 10° SSE 17:52:55 89° ENE 17:58:43 10° NNW
Cosmos 2263 Rocket 3.4 17:48:37 10° NW 17:53:55 41° WSW 17:59:12 10° S
BREEZE-M DEB (TANK) 4.1 17:55:18 10° SW 17:57:14 26° SW 17:57:14 26° SW
COSMO-SKYMED 1 2.6 17:59:08 63° SSW 17:59:08 63° SSW 18:02:36 10° SSW
Cosmos 1680 Rocket 3.3 17:54:12 10° NNW 17:59:27 79° ENE 18:00:24 60° SE
BREEZE-M DEB (TANK) 4.4 17:56:40 10° WNW 18:00:45 72° SSW 18:06:53 28° ESE
NOAA 6 3.9 17:57:11 10° SSE 18:02:17 89° E 18:07:26 10° NNW
Cosmos 2369 3.6 17:58:11 10° SSW 18:03:54 88° WNW 18:05:20 53° NNE
Cosmos 967 Rocket 4.4 17:58:10 10° SSW 18:04:29 74° ESE 18:05:42 58° ENE
Cosmos 44 Rocket 3.8 18:07:51 10° NW 18:11:53 52° N 18:11:53 52° N
Cosmos 2333 Rocket 4.1 18:28:05 10° S 18:29:34 18° S 18:29:34 18° S
CENTAUR R/B 4.1 18:29:06 10° NW 18:35:09 28° N 18:35:36 28° NNE
Lacrosse 5 rocket 4.0 18:32:05 10° NW 18:32:26 12° NW 18:32:26 12° NW
Meteor 1-14 Rocket 4.5 18:33:15 10° NNW 18:38:58 66° W 18:39:10 66° WSW
USA 215 3.7 18:59:28 51° NNW 18:59:28 51° NNW 19:04:38 10° NW
SL-16 R/B 4.0 19:09:15 10° SW 19:11:20 23° SW 19:11:20 23° SW
COSMOS 2455 4.3 19:18:15 10° WSW 19:21:46 33° WSW 19:21:46 33° WSW
Cosmos 1980 Rocket 4.4 19:27:27 10° W 19:31:07 18° NW 19:31:07 18° NW
